Showing default

SCATSAT 1, 41790

Orbit data source: Space-Track

SCATSAT 1, 41790 is a payload satellite owned by ISRO (IN) in SSO that was launched on Mon, 26 Sep 2016 UTC via a PSLV launch vehicle from the Sirharikota (SRI). Payload-class satellites include a variety of spacecraft equipped with specific instruments for various scientific and technological missions. These include communications satellites like Starlink; space stations such as the ISS; scientific satellites like the Hubble; Earth observation satellites from companies like Planet Labs, Umbra, and HawkEye 360; GPS; miniature CubeSats for education and research; and military/defense satellites.

Loading next visibility...
Identifier
41790, 2016-059H
Orbit
SSO
Last TLE update
12 hours ago
Origin
Manufacturer
ISRO SAC/Banga
Mission
Operational Civil Science
Bus & Motor
SSB-2, Unknown motor
Mass
370 kg wet, ~350 kg dry
Launch date (UTC)
2016-09-26 (9 years ago)
Launch vehicle
PSLV
Launch site
Sirharikota (SRI)
Object type
Payload
Rocket body
Debris
Shape & HBR
Box + 2 Pan, 4 m
Radar Cross Section
4.015 m², Large (>1 m²)

Expand to show TLE details & history

TLE from 12 hours ago
0 SCATSAT 1
1 41790U 16059H   25128.73126102  .00002122  00000-0  29301-3 0  9997
2 41790  98.1717 182.4158 0057535 109.2936 251.4508 14.78113335 41815
Epoch: 2025-05-08T17:33Z
Definitive object data (Epoch: 2025-05-08T17:33:00.952Z)
Latitude
-0.0001°
Longitude
52.3643°
Altitude
651.344 km
Speed
7.525 km/s
True Right ascension
12h 09m 39s
True Declination
0° 00' 00"
Sunlit
Object was in full shadow at TLE epoch
Visualization TLE readout
Latitude
-29.19595°
Longitude
-131.69294°
Altitude
654.146 km
Speed
7.525 km/s
Apparent Right ascension
00h 49m 34s
Apparent Declination
-35° 09' 07"
Sunlit
Object is in daylight
Visualization observer readout
Local Sidereal Time
14:00:24
Azimuth
76.828° E
Elevation
-75.203°
Doppler factor
1
Orbital elements
Apogee altitude
672.676 km
Perigee altitude
592.007 km
Semi-major axis
7,010.478 km
Eccentricity
0.0057535
Inclination
98.1717°
RAAN
182.4158°
Arg. of periapsis
109.2936°
True anomaly
250.82719°
Mean anomaly
251.4508°
Eccentric anomaly
251.13885°
Mean motion
3.69762 °/min
BSTAR
0.00029301
Orbital period
97.36 mins
Loading maneuver chart data...
Loading SW <> Apogee altitude chart data...
Loading historical data...
Loading historical data...
Loading historical data...
Loading historical data...
Loading historical data...
Loading historical data...
Loading historical data...

SCATSAT 1 Visibility forecast

Observer location: undefined°, undefined°

Span
Click to sort rows by Start time (UTC) header in descending order
Start Az.
Max El. time (UTC)
Max El. Az.
Max El.
End time (UTC)
End Az.
6 mins2025-05-09 16:52:39.916Z348.986° N2025-05-09 16:54:39.916Z298.607° NW35.59°2025-05-09 16:58:39.916Z215.397° SW
7 mins2025-05-10 03:47:39.916Z181.906° SSW2025-05-10 03:50:39.916Z246.758° WSW40.722°2025-05-10 03:54:39.916Z338.395° N
|